Location: Bermeries
(50.2863°N, 3.7551°E)
Time: 02:33:52
(UTC+00:00)

Daily predictions for brighter satellites

Satellite Brightness Start Highest point End
(mag) Time Altitude Azimuth Time Altitude Azimuth Time Altitude Azimuth
Cosmos 2228 Rocket 3.4 00:05:20 37° SSE 00:06:49 55° E 00:11:14 10° NNE
Meteor 1-12 Rocket 4.3 00:02:48 10° NNW 00:08:43 90° E 00:11:47 31° S
Cosmos 2082 Rocket 2.8 00:07:01 30° SSE 00:09:16 43° ESE 00:14:40 10° NE
Helios 1A Rocket 3.9 00:07:44 23° ESE 00:09:37 39° ENE 00:13:13 10° N
Cosmos 1833 Rocket 2.9 00:08:10 25° SW 00:11:25 66° WNW 00:17:03 10° NNE
BREEZE-M DEB (TANK) 3.4 00:13:11 42° S 00:13:11 42° S 00:18:58 10° SE
Cosmos 724 4.2 00:12:02 32° SSW 00:14:54 74° SE 00:20:44 10° NE
Cosmos 1908 4.1 00:12:35 10° NNW 00:15:45 30° W 00:16:07 29° WSW
CZ-2D R/B 4.5 00:14:34 10° NE 00:17:11 13° E 00:19:47 10° ESE
Cosmos 2360 Rocket 4.5 00:15:29 10° NNW 00:20:00 24° NE 00:24:30 10° E
USA 267 3.2 00:18:18 10° ENE 00:24:53 84° SSE 00:30:21 16° SW
Cosmos 1140 Rocket 3.9 00:22:28 26° SW 00:25:17 56° WNW 00:30:27 10° NNE
Cosmos 1441 Rocket 3.9 00:23:25 10° NNW 00:26:43 34° W 00:27:04 34° WSW
Cosmos 1707 4.2 00:26:20 21° W 00:27:29 25° WNW 00:30:35 10° NNW
Cosmos 1455 3.8 00:26:25 10° NNE 00:29:21 25° ENE 00:31:18 16° ESE
Cosmos 1733 Rocket 2.9 00:26:02 10° NNW 00:30:23 80° W 00:31:54 40° S
Cosmos 841 Rocket 4.4 00:26:09 10° NNW 00:31:12 47° ENE 00:36:16 10° SE
Resurs 1-4 Rocket 4.2 00:28:38 10° NE 00:32:09 18° E 00:35:38 10° SE
Cosmos 1400 Rocket 2.7 00:32:16 45° SSW 00:33:26 82° WNW 00:37:27 10° N
GP-B 3.7 00:29:17 10° N 00:33:29 45° W 00:35:02 32° SW
H-2A R/B 3.1 00:32:48 10° N 00:36:57 39° WNW 00:38:59 24° WSW
Cosmos 381 Rocket 4.5 00:31:32 10° NNW 00:37:58 76° WSW 00:41:55 25° SSE
Cosmos 2278 4.2 00:34:48 10° NNW 00:40:28 60° NE 00:46:07 10° SE
NOSS 3-4 (A) 4.0 00:35:26 10° NW 00:42:06 53° WSW 00:47:10 21° S
NOSS 3-4 (C) 4.0 00:35:33 10° NW 00:42:12 53° WSW 00:47:19 21° S
Cosmos 1346 Rocket 2.6 00:40:06 10° NNW 00:44:00 85° W 00:45:17 41° S
Cosmos 676 Rocket 4.3 00:42:47 30° S 00:45:18 57° ESE 00:50:32 10° NNE
Cosmos 468 Rocket 4.0 00:41:39 10° NNW 00:46:57 73° WSW 00:49:47 28° S
Cosmos 2251 Rocket 3.8 00:44:26 26° SW 00:47:15 59° WNW 00:52:30 10° NNE
Cosmos 407 Rocket 4.0 00:44:27 25° SW 00:47:24 54° WNW 00:52:35 10° NNE
Cosmos 1954 Rocket 4.0 00:48:42 31° S 00:51:18 76° ESE 00:56:38 10° NNE
Okean 2 3.9 00:49:49 30° SSE 00:51:25 50° E 00:55:17 10° NNE
Cosmos 2333 Rocket 4.0 00:47:55 10° NNW 00:53:02 32° NE 00:58:10 10° ESE
CZ-2C R/B 3.9 00:49:03 10° SE 00:53:43 36° ENE 00:58:25 10° N
Meteor 1-4 Rocket 3.4 00:53:08 27° ESE 00:53:48 30° E 00:56:28 10° NNE
Cosmos 1190 Rocket 4.0 00:51:10 30° SSW 00:53:51 81° WNW 00:59:11 10° NNE
Cosmos 1763 Rocket 4.0 00:51:14 10° NW 00:56:14 43° WSW 00:58:19 29° SSW
Cosmos 2322 Rocket 3.3 00:52:42 10° NNW 00:58:06 43° NE 01:03:29 10° ESE
Cosmos 1300 3.5 00:55:37 10° NNW 00:58:49 32° W 00:59:22 30° WSW
Cosmos 1703 Rocket 4.2 00:58:54 24° SSE 01:01:15 48° E 01:05:34 10° NNE
USA 234 3.5 00:56:30 13° SSE 01:02:14 46° SW 01:08:31 10° WNW
SL-14 R/B 4.0 01:01:39 30° WSW 01:02:59 41° WNW 01:06:39 10° N
Cosmos 1953 2.3 00:59:32 10° N 01:03:28 79° E 01:05:20 29° SSE
SL-8 R/B 3.9 00:59:42 10° W 01:04:13 44° SSW 01:08:45 10° SE
Cosmos 1697 Rocket 4.2 01:00:41 10° WNW 01:04:25 18° W 01:05:44 17° WSW
Cosmos 1862 Rocket 3.9 01:04:13 31° SW 01:06:00 53° WNW 01:10:16 10° N
Aureole 3 3.2 01:09:14 37° WSW 01:09:46 41° WNW 01:12:39 10° N
Cosmos 1980 Rocket 3.1 01:06:53 10° NW 01:11:54 32° WSW 01:14:01 25° SW
Nadezhda 1 Rocket 4.1 01:06:47 10° N 01:13:15 87° E 01:18:17 17° S
Cosmos 540 Rocket 4.0 01:09:51 10° NW 01:14:40 40° WSW 01:16:52 27° SSW
Cosmos 1242 Rocket 4.2 01:13:26 15° SE 01:14:45 19° E 01:16:54 10° NE
Cosmos 1300 Rocket 4.4 01:12:20 10° N 01:16:33 47° ENE 01:20:25 12° SSE
ADEOS II 3.7 01:15:01 10° NE 01:19:29 27° E 01:23:56 10° SSE
MOZ.5/SAFIR/RUBIN 5/SL-8 3.7 01:18:21 23° S 01:21:16 73° WSW 01:26:00 10° NNW
Cosmos 2369 4.5 01:17:55 10° NW 01:23:00 34° WSW 01:25:30 24° SSW
COSMOS 2406 3.3 01:19:32 23° SW 01:23:12 72° WNW 01:28:59 10° NNE
Cosmos 1408 4.3 01:21:25 12° SE 01:23:14 20° E 01:25:30 10° NE
Cosmos 1356 Rocket 4.1 01:22:17 26° SW 01:24:05 41° WNW 01:28:02 10° N
Lacrosse 5 rocket 1.1 01:20:17 10° WNW 01:24:25 72° SW 01:28:20 10° SE
IDEFIX/ARIANE 42P 3.0 01:19:32 10° NNE 01:24:45 57° ESE 01:28:28 19° S
EXPRESS MD2 4.3 01:27:55 20° SSE 01:28:12 20° SE 01:31:01 10° E
Okean 1-7 3.2 01:30:04 27° SW 01:32:14 57° WNW 01:36:31 10° N
Okean 3 4.5 01:34:53 21° WSW 01:36:50 32° WNW 01:40:34 10° N
ATLAS 2AS CENTAUR R/B 3.6 01:32:41 10° NW 01:39:27 51° NE 01:45:57 10° ESE
Cosmos 1315 Rocket 2.7 01:39:37 26° SSW 01:41:40 72° WNW 01:45:36 10° N
SL-16 R/B 2.2 01:37:00 10° NNW 01:42:40 69° WSW 01:48:17 10° SSE
SJ 16-02 2.7 01:39:50 13° SSE 01:43:08 31° ESE 01:46:57 10° NE
CZ-2C R/B 4.0 01:37:31 10° NNE 01:43:12 50° E 01:48:25 12° S
Helios 1A Rocket 4.3 01:43:06 19° WSW 01:44:06 21° W 01:47:06 10° NW
Cosmos 1850 Rocket 4.1 01:46:14 20° SSW 01:50:00 78° ESE 01:55:17 10° NNE
Cosmos 2082 Rocket 3.1 01:48:50 14° WSW 01:53:25 41° NW 01:58:49 10° NNE
Cosmos 1709 Rocket 4.1 01:49:42 16° S 01:54:55 90° ESE 02:01:21 10° N
Cosmos 1741 Rocket 4.0 01:51:18 19° SSW 01:55:06 81° ESE 02:00:24 10° NNE
Cosmos 2219 Rocket 3.3 01:50:19 10° NNW 01:55:48 48° NE 02:01:16 10° SE
Cosmos 1782 Rocket 3.6 01:52:08 10° NNW 01:56:27 59° W 01:59:39 17° S
Cosmos 2181 Rocket 4.4 01:50:33 10° N 01:56:56 66° ENE 02:03:10 10° SSE
SL-16 R/B 2.9 01:50:51 10° SSE 01:57:03 68° ENE 02:03:17 10° NNW
Cosmos 1908 Rocket 4.5 01:53:06 10° NNW 01:57:04 32° W 01:59:24 19° SW
CZ-2D R/B 2.3 01:52:35 10° NNE 01:58:06 79° ESE 02:02:42 15° S
Cosmos 1703 4.0 02:00:01 12° SSE 02:03:20 47° E 02:06:56 10° NNE
Cosmos 1455 3.3 02:00:56 10° NW 02:03:46 24° W 02:05:04 19° WSW
Meteor 1-28 Rocket 3.5 02:00:31 10° SSE 02:04:02 64° ENE 02:07:35 10° N
Cosmos 2360 Rocket 2.2 01:59:03 10° NNW 02:04:46 88° WSW 02:10:27 10° SSE
CRYOSAT 2 4.4 02:01:17 10° N 02:06:13 85° E 02:10:48 12° S
Cosmos 968 Rocket 3.6 02:02:10 16° SSW 02:06:14 73° ESE 02:11:22 10° NNE
USA 267 3.9 02:01:23 10° ENE 02:07:44 55° NNW 02:14:04 10° W
Genesis I 3.8 02:05:37 18° S 02:07:53 41° ESE 02:11:16 10° NE
RESURS DK-1 2.6 02:04:51 10° NNW 02:08:56 71° ENE 02:12:59 10° SE
Meteor 1-24 Rocket 4.4 02:03:17 10° S 02:09:11 58° E 02:15:03 10° NNE
MSX 3.9 02:05:19 10° NNE 02:11:03 76° WNW 02:16:00 14° SSW
Resurs 1-4 Rocket 2.1 02:07:16 10° NNE 02:12:33 78° WNW 02:17:04 14° SSW
Cosmos 841 Rocket 4.4 02:08:20 10° NW 02:12:50 30° W 02:16:19 15° SSW
H-2A R/B 3.9 02:13:03 10° N 02:16:54 46° WNW 02:19:49 16° SW
FENGYUN 3A 3.8 02:16:35 10° NNE 02:22:00 80° ESE 02:27:21 10° SSW
Meteor 1-4 Rocket 4.2 02:25:17 11° W 02:26:54 15° WNW 02:28:43 10° NNW
Geosat 4.4 02:27:15 10° SE 02:32:14 69° NE 02:37:14 10° NNW
SL-24 R/B 4.4 02:28:51 10° S 02:33:42 66° W 02:38:31 10° N
CZ-2C R/B 3.2 02:29:15 10° SSW 02:33:57 38° W 02:38:47 10° NNW
Cosmos 2242 Rocket 3.9 02:30:52 13° SSW 02:34:42 52° WNW 02:39:07 10° N
SAR-Lupe-1 4.5 02:33:44 10° NNE 02:37:18 61° ESE 02:40:49 10° S
Cosmos 2333 Rocket 2.3 02:32:02 10° NW 02:37:39 58° WSW 02:43:16 10° S
Sich 1 Rocket 3.8 02:33:14 10° N 02:37:47 77° E 02:42:14 10° SSE
Timation 1 Rocket 4.5 02:32:20 12° SW 02:37:51 72° WNW 02:43:51 10° NNE
Cosmos 1825 3.6 02:35:01 10° SSE 02:38:06 32° E 02:41:11 10° NNE
Cosmos 2098 Rocket 3.7 02:33:07 10° NNW 02:38:09 63° W 02:44:05 10° S
Cosmos 2151 Rocket 3.6 02:35:47 10° N 02:40:19 87° E 02:44:46 10° S
Cosmos 1814 Rocket 4.3 02:36:26 10° NW 02:41:24 45° WSW 02:46:22 10° S
Cosmos 2292 4.4 02:39:00 10° NNW 02:42:04 60° W 02:45:38 10° S
Cosmos 2322 Rocket 2.7 02:36:54 10° NW 02:42:07 39° WSW 02:47:19 10° S
SL-27 R/B 1.9 02:40:26 13° SSW 02:42:49 67° WNW 02:45:38 10° NNE
Cosmos 1892 3.5 02:40:49 10° SSE 02:44:10 44° E 02:47:33 10° NNE
Cosmos 1242 Rocket 3.7 02:44:54 11° WSW 02:46:58 21° WNW 02:49:16 10° NNW
Meteor 2-5 Rocket 3.9 02:43:36 10° SSW 02:49:31 75° WNW 02:55:30 10° N
SL-4 R/B 3.7 02:47:49 10° SSW 02:51:25 26° SE 02:55:07 10° E
Okean 2 Rocket 3.0 02:48:47 10° NNW 02:53:11 77° W 02:57:34 10° S
Cosmos 1408 3.6 02:53:37 10° SW 02:56:01 22° WNW 02:58:27 10° NNW
Cosmos 2074 Rocket 4.1 02:50:32 10° S 02:56:46 87° WNW 03:03:01 10° N
Cosmos 1674 Rocket 3.6 02:53:47 10° S 02:58:14 88° E 03:02:42 10° N
Cosmos 1570 Rocket 4.0 02:54:01 10° NNW 02:59:19 72° WSW 03:04:37 10° SSE
ADEOS II 2.5 02:54:18 10° N 02:59:22 50° WNW 03:04:24 10° SW
Lacrosse 5 rocket 3.0 03:00:01 10° W 03:02:03 14° SW 03:04:04 10° SSW
Cosmos 2208 Rocket 4.0 02:57:09 10° NNW 03:02:31 86° WSW 03:07:43 10° SSE
IDEFIX/ARIANE 42P 3.9 02:59:37 10° N 03:03:56 26° WNW 03:08:15 10° WSW
Cosmos 1833 4.3 02:58:52 10° SSW 03:04:33 77° WNW 03:10:14 10° NNE
ALOS 2.3 03:00:11 10° N 03:04:47 67° WNW 03:09:22 10° SSW
